EN

Hourly Weather Altyntobe

Today, 19 January, Tuesday

Time Temperature Precipitation Wind Pressure Humidity
00:00 +5°C° 0 mm 4 mps 680 mmHg 60%
01:00 +5°C° 0 mm 4 mps 680 mmHg 60%
02:00 +5°C° 0 mm 4 mps 681 mmHg 59%
03:00 +5°C° 0 mm 4 mps 681 mmHg 60%
04:00 +5°C° 0 mm 4 mps 681 mmHg 60%
05:00 +6°C° 0 mm 4 mps 681 mmHg 61%
06:00 +5°C° 0 mm 4 mps 682 mmHg 62%
07:00 +5°C° 0 mm 4 mps 682 mmHg 63%
08:00 +5°C° 0 mm 3 mps 682 mmHg 64%
09:00 +6°C° 0 mm 4 mps 683 mmHg 62%
10:00 +7°C° 0 mm 4 mps 683 mmHg 59%
11:00 +10°C° 0 mm 4 mps 684 mmHg 56%
12:00 +10°C° 0 mm 4 mps 684 mmHg 56%
13:00 +11°C° 0 mm 4 mps 684 mmHg 55%
14:00 +11°C° 0 mm 4 mps 684 mmHg 54%
15:00 +10°C° 0.1 mm 4 mps 683 mmHg 61%
16:00 +8°C° 0.1 mm 5 mps 683 mmHg 67%
17:00 +7°C° 0.1 mm 5 mps 683 mmHg 74%
18:00 +6°C° 0.2 mm 5 mps 684 mmHg 76%
19:00 +5°C° 0.2 mm 4 mps 684 mmHg 79%
20:00 +5°C° 0.2 mm 4 mps 684 mmHg 82%
21:00 +5°C° 0.5 mm 3 mps 684 mmHg 82%
22:00 +5°C° 0.5 mm 3 mps 685 mmHg 82%
23:00 +6°C° 0.5 mm 2 mps 685 mmHg 82%

Tomorrow, 20 January, Wednesday

Time Temperature Precipitation Wind Pressure Humidity
00:00 +5°C° 0.7 mm 3 mps 685 mmHg 84%
01:00 +5°C° 0.7 mm 3 mps 685 mmHg 86%
02:00 +4°C° 0.7 mm 4 mps 685 mmHg 87%
03:00 +4°C° 0.1 mm 4 mps 686 mmHg 84%
04:00 +4°C° 0.1 mm 4 mps 686 mmHg 81%
05:00 +4°C° 0.1 mm 4 mps 686 mmHg 78%
06:00 +4°C° 0 mm 4 mps 687 mmHg 77%
07:00 +3°C° 0 mm 3 mps 687 mmHg 77%
08:00 +3°C° 0 mm 3 mps 687 mmHg 76%
09:00 +5°C° 0 mm 3 mps 688 mmHg 71%
10:00 +7°C° 0 mm 2 mps 688 mmHg 66%
11:00 +8°C° 0 mm 2 mps 688 mmHg 61%
12:00 +9°C° 0 mm 2 mps 687 mmHg 56%
13:00 +10°C° 0 mm 2 mps 687 mmHg 52%
14:00 +10°C° 0 mm 2 mps 687 mmHg 47%
15:00 +9°C° 0 mm 2 mps 686 mmHg 49%
16:00 +8°C° 0 mm 2 mps 686 mmHg 51%
17:00 +7°C° 0 mm 2 mps 685 mmHg 53%
18:00 +6°C° 0 mm 2 mps 685 mmHg 50%
19:00 +6°C° 0 mm 2 mps 684 mmHg 48%
20:00 +4°C° 0 mm 3 mps 684 mmHg 45%
21:00 +4°C° 0 mm 3 mps 684 mmHg 43%
22:00 +4°C° 0 mm 3 mps 683 mmHg 41%
23:00 +3°C° 0 mm 3 mps 683 mmHg 39%

Day after tomorrow, 21 January, Thursday

Time Temperature Precipitation Wind Pressure Humidity
00:00 +3°C° 0 mm 3 mps 683 mmHg 38%
01:00 +3°C° 0 mm 3 mps 682 mmHg 36%
02:00 +3°C° 0 mm 4 mps 682 mmHg 34%
03:00 +3°C° 0 mm 4 mps 681 mmHg 33%
04:00 +3°C° 0 mm 4 mps 681 mmHg 32%
05:00 +3°C° 0 mm 4 mps 680 mmHg 30%
06:00 +3°C° 0 mm 4 mps 680 mmHg 30%
07:00 +3°C° 0 mm 4 mps 679 mmHg 30%
08:00 +3°C° 0 mm 4 mps 679 mmHg 30%
09:00 +5°C° 0 mm 3 mps 679 mmHg 31%
10:00 +7°C° 0 mm 3 mps 679 mmHg 31%
11:00 +9°C° 0 mm 2 mps 679 mmHg 32%
12:00 +10°C° 0 mm 2 mps 678 mmHg 33%
13:00 +12°C° 0 mm 2 mps 678 mmHg 33%
14:00 +12°C° 0 mm 2 mps 677 mmHg 34%
15:00 +10°C° 0 mm 2 mps 677 mmHg 36%
16:00 +9°C° 0 mm 2 mps 676 mmHg 38%
17:00 +8°C° 0 mm 3 mps 675 mmHg 40%
18:00 +8°C° 0 mm 3 mps 676 mmHg 41%
19:00 +8°C° 0 mm 2 mps 676 mmHg 42%
20:00 +7°C° 0 mm 2 mps 676 mmHg 43%
21:00 +7°C° 0.3 mm 2 mps 676 mmHg 53%
22:00 +6°C° 0.3 mm 2 mps 676 mmHg 62%
23:00 +6°C° 0.3 mm 1 mps 676 mmHg 72%

22 January, Friday

Time Temperature Precipitation Wind Pressure Humidity
00:00 +4°C° 0.8 mm 2 mps 676 mmHg 77%
01:00 +3°C° 0.8 mm 3 mps 676 mmHg 83%
02:00 +3°C° 0.8 mm 4 mps 676 mmHg 88%
03:00 +1°C° 3.3 mm 5 mps 677 mmHg 91%
04:00 +1°C° 3.3 mm 5 mps 678 mmHg 94%
05:00 -1°C° 3.3 mm 6 mps 678 mmHg 97%
06:00 -2°C° 3.1 mm 6 mps 680 mmHg 97%
07:00 -4°C° 3.1 mm 6 mps 681 mmHg 97%
08:00 -5°C° 3.1 mm 6 mps 683 mmHg 96%
09:00 -8°C° 1.5 mm 6 mps 684 mmHg 96%
10:00 -8°C° 1.5 mm 5 mps 686 mmHg 95%
11:00 -11°C° 1.5 mm 5 mps 688 mmHg 95%
12:00 -10°C° 0.5 mm 4 mps 688 mmHg 94%
13:00 -10°C° 0.5 mm 4 mps 689 mmHg 94%
14:00 -9°C° 0.5 mm 3 mps 690 mmHg 93%
15:00 -9°C° 0.1 mm 3 mps 691 mmHg 94%
16:00 -9°C° 0.1 mm 2 mps 691 mmHg 95%
17:00 -9°C° 0.1 mm 2 mps 691 mmHg 96%
18:00 -10°C° 0 mm 2 mps 692 mmHg 94%
19:00 -10°C° 0 mm 2 mps 693 mmHg 93%
20:00 -9°C° 0 mm 1 mps 693 mmHg 92%
21:00 -10°C° 0 mm 1 mps 693 mmHg 91%
22:00 -10°C° 0 mm 1 mps 694 mmHg 90%
23:00 -10°C° 0 mm 1 mps 694 mmHg 90%

23 January, Saturday

Time Temperature Precipitation Wind Pressure Humidity
00:00 -12°C° 0 mm 2 mps 694 mmHg 89%
01:00 -12°C° 0 mm 2 mps 694 mmHg 88%
02:00 -12°C° 0 mm 2 mps 694 mmHg 87%
03:00 -13°C° 0 mm 2 mps 694 mmHg 85%
04:00 -13°C° 0 mm 2 mps 694 mmHg 83%
05:00 -13°C° 0 mm 2 mps 694 mmHg 81%
06:00 -13°C° 0 mm 2 mps 694 mmHg 79%
07:00 -14°C° 0 mm 2 mps 695 mmHg 78%
08:00 -14°C° 0 mm 2 mps 695 mmHg 76%
09:00 -12°C° 0 mm 2 mps 696 mmHg 75%
10:00 -10°C° 0 mm 2 mps 696 mmHg 74%
11:00 -7°C° 0 mm 1 mps 697 mmHg 73%
12:00 -7°C° 0 mm 1 mps 696 mmHg 74%
13:00 -6°C° 0 mm 1 mps 696 mmHg 74%
14:00 -6°C° 0 mm 1 mps 696 mmHg 75%
15:00 -7°C° 0 mm 1 mps 696 mmHg 78%
16:00 -8°C° 0 mm 1 mps 696 mmHg 81%
17:00 -9°C° 0 mm 1 mps 696 mmHg 84%
18:00 -10°C° 0 mm 1 mps 696 mmHg 80%
19:00 -10°C° 0 mm 1 mps 696 mmHg 77%
20:00 -12°C° 0 mm 2 mps 696 mmHg 73%
21:00 -12°C° 0 mm 2 mps 696 mmHg 71%
22:00 -12°C° 0 mm 2 mps 696 mmHg 68%
23:00 -12°C° 0 mm 2 mps 696 mmHg 65%

24 January, Sunday

Time Temperature Precipitation Wind Pressure Humidity
00:00 -12°C° 0 mm 2 mps 695 mmHg 63%
01:00 -12°C° 0 mm 2 mps 695 mmHg 61%
02:00 -12°C° 0 mm 2 mps 695 mmHg 59%
03:00 -12°C° 0 mm 2 mps 694 mmHg 58%
04:00 -12°C° 0 mm 2 mps 694 mmHg 57%
05:00 -12°C° 0 mm 2 mps 694 mmHg 56%
06:00 -12°C° 0 mm 2 mps 694 mmHg 55%
07:00 -12°C° 0 mm 2 mps 694 mmHg 54%
08:00 -12°C° 0 mm 2 mps 694 mmHg 53%
09:00 -8°C° 0 mm 1 mps 694 mmHg 57%
10:00 -6°C° 0 mm 1 mps 694 mmHg 60%
11:00 -4°C° 0 mm 1 mps 695 mmHg 64%
12:00 -3°C° 0 mm 1 mps 694 mmHg 66%
13:00 -3°C° 0 mm 1 mps 694 mmHg 67%
14:00 -3°C° 0 mm 1 mps 694 mmHg 69%
15:00 -4°C° 0 mm 1 mps 693 mmHg 72%
16:00 -6°C° 0 mm 1 mps 693 mmHg 74%
17:00 -7°C° 0 mm 1 mps 693 mmHg 77%
18:00 -8°C° 0 mm 1 mps 693 mmHg 74%
19:00 -8°C° 0 mm 1 mps 693 mmHg 70%
20:00 -9°C° 0 mm 2 mps 693 mmHg 66%
21:00 -9°C° 0 mm 2 mps 693 mmHg 64%
22:00 -8°C° 0 mm 1 mps 693 mmHg 61%
23:00 -8°C° 0 mm 1 mps 693 mmHg 58%
Show more